Latest Coastal Weather Observations for Swan Island

IDT60701

Issued at 7:32 pm EST Wednesday 6 May 2026 (issued every 10 minutes, with the page automatically refreshed every 10 minutes)

About coastal observations | Map of coastal stations | Coastal observations for TAS | Marine services | Other Formats
Station Details ID: 092123 Name: SWAN ISLAND Lat: -40.73 Lon: 148.12 Height: 15.0 m
Data from the previous 72 hours. | See also: Recent months at Swan Island
Date/Time
EST
Wind Sea
Height
m
Swell Vis
km
Cloud Weather Temp
°C
Press
MSL
hPa
Rain since
9am
mm
Dir  Spd
kts
Gust
kts
Height
m
Period
s
Dir
06/07:30pm NNW 28 35 - - - - - - - 14.8 1007.3 -
06/07:00pm NW 29 36 - - - - - - - 14.5 1007.5 -
06/06:47pm NW 26 36 - - - - - - - 14.8 1007.9 -
06/06:30pm NW 29 37 - - - - - - - 14.9 1008.2 -
06/06:00pm NW 25 33 - - - - - - - 15.0 1008.3 -
06/05:30pm NW 25 31 - - - - - - - 14.9 1008.5 -
06/05:01pm NW 23 34 - - - - - - - 14.7 1008.9 -
06/05:00pm NW 24 34 - - - - - - - 14.5 1008.9 -
06/04:49pm NW 20 30 - - - - - - - 14.5 1009.0 -
06/04:30pm WNW 21 29 - - - - - - - 14.0 1009.5 -
06/04:13pm WNW 21 31 - - - - - - - 14.1 1009.9 -
06/04:00pm WNW 20 26 - - - - - - - 14.0 1010.0 -
06/03:30pm NW 26 38 - - - - - - - 15.7 1010.1 -
06/03:25pm NW 24 36 - - - - - - - 15.8 1010.0 -
06/03:00pm NW 26 33 - - - - - - Recent precip. 15.9 1010.3 -
06/02:30pm NW 26 32 - - - - - - - 15.8 1010.8 -
06/02:00pm NW 27 33 - - - - - - - 16.1 1011.1 -
06/01:30pm NW 24 32 - - - - - - - 15.8 1011.6 -
06/01:00pm NW 23 31 - - - - - - - 15.6 1012.2 -
06/12:30pm NW 20 30 - - - - - - - 15.0 1012.8 -
06/12:26pm NW 21 32 - - - - - - - 15.0 1012.9 -
06/12:00pm NW 21 30 - - - - - - Recent precip. 15.6 1013.2 -
06/11:30am NW 22 30 - - - - - - - 16.6 1013.6 -
06/11:00am NW 20 29 - - - - - - - 16.4 1014.1 0.0
06/10:59am NW 19 29 - - - - - - - 16.6 1014.1 0.0
06/10:30am NW 16 23 - - - - - - - 16.1 1014.6 0.0
06/10:00am NW 18 25 - - - - - - - 15.6 1014.9 0.0
06/09:30am WNW 18 24 - - - - - - - 15.8 1015.3 0.0
06/09:00am NW 16 22 - - - - - - Recent precip. 14.6 1015.8 0.2
06/08:42am WNW 19 30 - - - - - - - 13.9 1016.1 0.0
06/08:30am WNW 20 28 - - - - - - - 15.2 1016.1 0.0
06/08:00am WNW 16 21 - - - - - - - 15.6 1016.0 0.0
06/07:30am WNW 17 23 - - - - - - - 15.4 1016.1 0.0
06/07:15am WNW 16 26 - - - - - - - 15.6 1016.0 0.0
06/07:00am WNW 19 25 - - - - - - - 15.4 1016.0 0.0
06/06:30am WNW 19 25 - - - - - - - 15.5 1016.0 0.0
06/06:11am WNW 20 31 - - - - - - - 15.8 1015.8 0.0
06/06:00am WNW 21 27 - - - - - - - 15.6 1015.8 0.0
06/05:30am WNW 19 27 - - - - - - - 15.5 1015.8 0.0
06/05:00am WNW 18 25 - - - - - - - 15.4 1015.9 0.0
06/04:30am WNW 21 27 - - - - - - - 15.4 1016.0 0.0
06/04:00am WNW 21 27 - - - - - - - 15.5 1016.1 0.0
06/03:30am WNW 17 24 - - - - - - - 15.5 1016.4 0.0
06/03:00am WNW 14 23 - - - - - - - 15.3 1016.7 0.0
06/02:30am WNW 15 25 - - - - - - - 15.3 1016.9 0.0
06/02:29am WNW 15 25 - - - - - - - 15.3 1016.9 0.0
06/02:00am WNW 16 24 - - - - - - - 15.2 1017.2 0.0
06/01:30am WNW 14 22 - - - - - - - 15.1 1017.6 0.0
06/01:10am WNW 16 26 - - - - - - - 15.1 1017.5 0.0
06/01:00am W 16 23 - - - - - - - 14.8 1017.5 0.0
06/12:30am W 17 25 - - - - - - - 14.6 1017.6 0.0
06/12:00am W 18 26 - - - - - - - 14.4 1017.6 0.0
 
Date/Time
EST
Wind Sea
Height
m
Swell Vis
km
Cloud Weather Temp
°C
Press
MSL
hPa
Rain since
9am
mm
Dir  Spd
kts
Gust
kts
Height
m
Period
s
Dir
05/11:49pm W 19 30 - - - - - - - 14.2 1017.3 0.0
05/11:30pm W 18 24 - - - - - - - 14.4 1017.4 0.0
05/11:00pm W 19 25 - - - - - - - 14.5 1017.5 0.0
05/10:50pm W 17 28 - - - - - - - 14.4 1017.4 0.0
05/10:30pm W 19 25 - - - - - - - 14.5 1017.5 0.0
05/10:00pm W 18 24 - - - - - - - 14.6 1017.7 0.0
05/09:30pm W 17 23 - - - - - - - 14.6 1017.7 0.0
05/09:08pm W 17 28 - - - - - - - 14.6 1017.6 0.0
05/09:00pm W 19 24 - - - - - - - 14.7 1017.4 0.0
05/08:30pm W 19 27 - - - - - - - 14.7 1017.2 0.0
05/08:00pm W 18 23 - - - - - - - 15.0 1017.2 0.0
05/07:30pm W 19 25 - - - - - - - 15.0 1016.9 0.0
05/07:00pm W 16 22 - - - - - - - 15.0 1016.9 0.0
05/06:30pm W 16 23 - - - - - - - 15.0 1016.6 0.0
05/06:21pm W 16 26 - - - - - - - 15.1 1016.5 0.0
05/06:00pm W 18 24 - - - - - - - 15.1 1016.1 0.0
05/05:30pm W 16 23 - - - - - - - 15.0 1015.6 0.0
05/05:00pm W 18 23 - - - - - - - 15.1 1015.2 0.0
05/04:30pm W 18 25 - - - - - - - 15.4 1014.8 0.0
05/04:00pm W 18 25 - - - - - - - 16.0 1014.5 0.0
05/03:30pm W 18 24 - - - - - - - 16.2 1014.2 0.0
05/03:00pm W 17 24 - - - - - - - 16.6 1013.7 0.0
05/02:30pm W 18 26 - - - - - - - 16.8 1013.1 0.0
05/02:00pm W 20 25 - - - - - - - 16.8 1012.8 0.0
05/01:30pm W 15 22 - - - - - - - 17.5 1012.6 0.0
05/01:00pm W 16 23 - - - - - - - 17.2 1012.5 0.0
05/12:30pm W 15 23 - - - - - - - 17.4 1012.7 0.0
05/12:00pm W 15 20 - - - - - - - 17.1 1012.6 0.0
05/11:30am W 16 23 - - - - - - - 16.9 1012.5 0.0
05/11:00am W 15 20 - - - - - - - 16.7 1012.2 0.0
05/10:30am W 14 21 - - - - - - - 16.1 1011.8 0.0
05/10:00am W 12 18 - - - - - - - 15.9 1011.5 0.0
05/09:30am W 6 9 - - - - - - - 16.0 1011.1 0.0
05/09:00am WSW 4 5 - - - - - - - 15.2 1010.8 4.2
05/08:30am N 5 7 - - - - - - - 14.6 1010.5 4.2
05/08:00am N 5 7 - - - - - - - 14.7 1010.0 4.2
05/07:30am N 5 6 - - - - - - - 14.1 1009.2 4.2
05/07:00am N 4 5 - - - - - - - 13.8 1008.6 4.2
05/06:30am CALM 0 0 - - - - - - - 14.1 1008.0 4.2
05/06:00am NNE 3 4 - - - - - - - 14.4 1007.7 4.2
05/05:30am NE 6 8 - - - - - - - 14.3 1007.0 4.2
05/05:00am NNW 7 9 - - - - - - - 14.6 1007.1 4.2
05/04:30am NNW 13 15 - - - - - - - 14.4 1007.2 4.2
05/04:00am NNW 19 23 - - - - - - - 15.2 1007.0 4.2
05/03:30am NNW 20 25 - - - - - - - 15.1 1007.1 4.2
05/03:00am NNW 20 24 - - - - - - Recent precip. 14.7 1007.3 4.2
05/02:30am NNW 15 18 - - - - - - - 15.3 1007.6 2.6
05/02:00am NNW 19 23 - - - - - - - 14.4 1008.0 2.6
05/01:50am NW 25 34 - - - - - - - 14.3 1008.1 2.0
05/01:43am NNW 20 34 - - - - - - - 15.6 1007.9 0.0
05/01:41am NNW 17 28 - - - - - - - 16.7 1007.9 0.0
05/01:30am NNW 19 23 - - - - - - - 16.5 1008.0 0.0
05/01:00am NNW 20 25 - - - - - - - 16.7 1008.2 0.0
05/12:30am NNW 20 24 - - - - - - - 16.9 1008.4 0.0
05/12:00am N 14 18 - - - - - - - 16.7 1008.7 0.0
 
Date/Time
EST
Wind Sea
Height
m
Swell Vis
km
Cloud Weather Temp
°C
Press
MSL
hPa
Rain since
9am
mm
Dir  Spd
kts
Gust
kts
Height
m
Period
s
Dir
04/11:30pm N 11 13 - - - - - - - 16.4 1009.0 0.0
04/11:00pm NNW 9 11 - - - - - - - 16.4 1009.2 0.0
04/10:30pm NNW 13 16 - - - - - - - 16.0 1009.4 0.0
04/10:00pm N 10 13 - - - - - - - 16.2 1009.9 0.0
04/09:30pm N 10 11 - - - - - - - 16.2 1009.9 0.0
04/09:00pm N 8 10 - - - - - - - 16.2 1009.8 0.0
04/08:30pm N 9 11 - - - - - - - 16.0 1009.6 0.0
04/08:00pm N 13 15 - - - - - - - 15.9 1009.6 0.0
04/07:30pm N 14 17 - - - - - - - 15.9 1009.6 0.0
04/07:00pm N 14 17 - - - - - - - 16.1 1009.6 0.0
04/06:30pm N 12 13 - - - - - - - 16.6 1009.6 0.0
04/06:00pm N 12 14 - - - - - - - 16.5 1009.5 0.0
04/05:30pm NNW 11 13 - - - - - - - 16.4 1009.5 0.0
04/05:00pm NNW 12 14 - - - - - - - 16.9 1009.4 0.0
04/04:30pm NNW 13 15 - - - - - - - 17.0 1009.2 0.0
04/04:00pm NNW 12 14 - - - - - - - 17.3 1009.1 0.0
04/03:30pm NNW 11 13 - - - - - - - 17.1 1009.2 0.0
04/03:00pm NNW 12 14 - - - - - - - 17.4 1009.3 0.0
04/02:30pm NNW 14 17 - - - - - - - 17.7 1009.3 0.0
04/02:00pm NNW 15 16 - - - - - - - 17.9 1009.3 0.0
04/01:30pm NNW 13 16 - - - - - - - 17.9 1009.6 0.0
04/01:00pm NNW 12 14 - - - - - - - 17.9 1010.0 0.0
04/12:30pm NNW 12 13 - - - - - - - 17.9 1010.3 0.0
04/12:00pm NNW 12 14 - - - - - - - 18.1 1010.7 0.0
04/11:30am NW 12 15 - - - - - - - 17.9 1011.3 0.0
04/11:00am NNW 14 16 - - - - - - - 17.4 1011.6 0.0
04/10:30am NNW 14 16 - - - - - - - 17.4 1011.8 0.0
04/10:00am NNW 12 13 - - - - - - - 17.4 1011.7 0.0
04/09:30am NW 12 15 - - - - - - - 17.2 1012.0 0.0
04/09:00am NW 12 14 - - - - - - - 17.0 1011.6 -
04/08:30am NW 10 14 - - - - - - - 16.9 1011.5 -
04/08:00am NW 12 15 - - - - - - - 16.4 1011.5 -
04/07:30am NW 10 14 - - - - - - - 15.9 1011.2 -
04/07:00am NW 10 15 - - - - - - - 15.6 1010.8 -
04/06:30am NW 10 16 - - - - - - - 15.8 1010.7 -
04/06:00am NW 11 15 - - - - - - - 15.8 1010.4 -
04/05:30am NW 10 15 - - - - - - - 15.8 1010.3 -
04/05:00am NW 9 14 - - - - - - - 15.7 1010.1 -
04/04:30am NW 12 16 - - - - - - - 15.6 1010.2 -
04/04:00am NW 12 17 - - - - - - - 15.7 1010.1 -
04/03:30am NW 11 17 - - - - - - - 15.7 1010.0 -
04/03:00am NW 13 17 - - - - - - - 15.7 1010.0 4.0
04/02:30am NW 11 17 - - - - - - - 15.6 1010.2 -
04/02:00am NW 12 18 - - - - - - - 15.7 1010.7 -
04/01:30am NW 15 18 - - - - - - - 15.4 1011.0 -
04/01:00am NW 12 16 - - - - - - - 15.4 1011.0 -
04/12:30am NW 9 13 - - - - - - - 16.0 1010.6 -
04/12:00am N 8 11 - - - - - - Recent precip. 16.5 1010.7 -
 
Date/Time
EST
Wind Sea
Height
m
Swell Vis
km
Cloud Weather Temp
°C
Press
MSL
hPa
Rain since
9am
mm
Dir  Spd
kts
Gust
kts
Height
m
Period
s
Dir
03/11:30pm N 8 9 - - - - - - - 16.7 1011.1 -
03/11:00pm NNW 11 13 - - - - - - - 16.9 1011.5 -
03/10:30pm NNW 14 19 - - - - - - - 17.3 1011.8 -
03/10:00pm NNW 13 18 - - - - - - - 17.5 1012.0 -
03/09:30pm N 19 25 - - - - - - - 17.9 1011.6 -
03/09:00pm NNE 16 22 - - - - - - - 18.2 1010.6 -
03/08:30pm NNE 12 17 - - - - - - - 17.4 1010.0 -
03/08:00pm NNE 14 19 - - - - - - - 17.3 1010.5 -

Other formats

Comma delimited format used in spreadsheet applications
http://www.bom.gov.au/fwo/IDT60701/IDT60701.95985.axf

JavaScript Object Notation format (JSON) in row-major order
http://www.bom.gov.au/fwo/IDT60701/IDT60701.95985.json

Data quality

Most of these data are generated automatically and are frequently updated. Quality checks on data are not normally performed. It is possible for incorrect values to appear. Refer to information at About Latest Weather Observations and please check the disclaimer before using these data.